#timestamp,LO_Frequency,Hit,StdDev 
1620344215.3,286047022.1,P
1620344235.2,286047024.7,P
1620344255.0,286047022.4,P
1620344255.9,286047022.4,Y
1620344275.8,286046998.1,P
1620344295.6,286047000.6,N
1620344315.4,286046998.5,N
1620344335.3,286046998.7,N
1620344355.1,286047000.7,N
1620344375.8,286046999.8,N
1620344395.7,286047002.8,N
1620344415.5,286047001.4,N
1620344435.4,286047003.6,N
1620344455.2,286047007.2,N
1620344475.0,286047006.4,N
1620344475.9,286047006.4,N
1620344495.8,286047006.7,N
1620344515.6,286047002.9,N
1620344535.4,286047004.2,N
1620344555.3,286047002.5,N
1620344575.1,286047000.2,N
1620344595.9,286047000.9,N
1620344615.7,286047000.3,N
1620344635.5,286047000.2,N
1620344655.4,286047002.4,N
1620344675.2,286047000.2,N
1620344695.0,286047000.7,N
1620344696.0,286047000.7,N
1620344715.8,286047000.7,N
1620344735.6,286047000.3,N
1620344755.5,286047002.3,N
1620344775.3,286047000.2,N
1620344795.1,286047000.6,N
1620344815.9,286047000.1,N
1620344835.7,286047001.6,N
1620344855.5,286047002.2,N
1620344875.4,286047003.9,N
1620344895.2,286047001.7,N
1620344915.1,286047000.1,N
1620344916.0,286047000.1,N
1620344935.8,286047001.2,N
1620344955.6,286046998.1,N
1620344975.5,286047000.9,N
1620344995.3,286047000.6,N
1620345015.1,286047001.9,N
1620345035.9,286047000.9,N
1620345055.7,286046998.9,N
1620345075.6,286047000.6,N
1620345095.4,286047000.6,N
1620345115.2,286047000.7,N
1620345135.1,286047000.5,N
1620345136.0,286047000.5,N
1620345155.8,286047000.2,N
1620345175.7,286047002.4,N
1620345195.5,286046998.1,N
1620345215.3,286046998.2,N
1620345235.2,286047000.7,N
1620345255.0,286047000.3,N
1620345255.9,286047000.3,N
1620345275.7,286047000.0,N
1620345295.6,286046998.2,N
1620345315.4,286047001.2,N
1620345335.3,286046998.4,N
1620345355.1,286046999.0,N
1620345356.0,286046999.0,N
1620345375.8,286046999.2,N
1620345395.7,286046998.7,N
1620345415.5,286046999.4,N
1620345435.3,286046997.0,N
1620345455.2,286046995.3,Y
1620345475.0,286046995.4,P
1620345475.9,286046995.4,N
1620345495.8,286046995.0,N
1620345515.6,286046997.1,N
1620345535.4,286046996.0,N
1620345555.3,286046993.7,Y
1620345575.1,286046996.6,P
1620345595.9,286046999.3,P
